FENGYUN 1C DEB

Satellite information

Favourite Embed

Satellite Type and Status

DEBRISIN ORBIT

Key statistics

Satellite FENGYUN 1C DEB at a glance.

Uptime

9496

Days in orbit

Revolutions

≈ 13.6

Per day

Orbit

SSO

Sun Synchronous Orbit

Inclination

98.9

Latest

Satellite identification and parameters

Extended collection of information and parameters for FENGYUN 1C DEB.

Object identification

Identified? True

Debris? True

Object name: FENGYUN 1C DEB

International designator: 1999-025PJ

Object number (NORAD): 30057

Object ID (CCSDS): 30057

Country: PEOPLES REPUBLIC OF CHINA (PRC)

Current information (Y/N): Y

RCS size: SMALL

Orbital parameters

Period: 106.153 minutes

Inclination: 98.889 deg

SMA: 7426.47 km

Apoapsis: 1263.612 km

Periapsis: 833.058 km

RAAN: 216.8766 deg

Eccentricy: 0.0289878

Argument of periapsis: 353.0814 deg

Mean anomaly: 31.3545 deg

Mean motion: 13.56529028 rev/day

Mean motion (dot): 0.0000089 rev/day2

B* drag term: 0.0010039 1/REarth

Two-line elements (TLE)

Creation date: May 8, 2025, 3:01 a.m.

Reference frame: TEME

Reference center: EARTH

Epoch: May 7, 2025, 5:28 a.m. UTC

TLE line 0: 0 FENGYUN 1C DEB

TLE line 1: 1 30057U 99025PJ 25127.22842037 .00000890 00000-0 10039-2 0 9997

TLE line 2: 2 30057 98.8890 216.8766 0289878 353.0814 31.3545 13.56529028902598

Live tracking on map

Real-time ground track for satellite FENGYUN 1C DEB.

In-orbit conjunctions

A list of the most updated potential collisions computed for object FENGYUN 1C DEB.

Target Orbit TCA Probability of collision Miss distance Type
FENGYUN 1C DEB SSO 2024-06-10 03:42:52 0.0001037353 780.0 (m) DEBRIS
COSMOS 842 LEO 2024-06-04 21:41:15 0.0005760525 627.0 (m) PAYLOAD

Associated space launch

Chinese polar orbiting meteorological satellite

FENGYUN 1C DEB was lifted into orbit during the mission ‘Long March 4B | Feng Yun 1C’, on board a Long March 4B space rocket.

The launch took place on May 10, 1999, 1:33 a.m. from Launch Complex 7.

For more information about the launch, click the button.

Launch to space Long March 4B | Feng Yun 1C
Long March 4B | Feng Yun 1C

Agency: N/A

Status: Launch Successful

Launch date: May 10, 1999, 1:33 a.m. UTC

Rocket: Long March 4B

Launch pad: Launch Complex 7

Location: Taiyuan Satellite Launch Center, People's Republic of China

...

Latest news about this satellite

There are no fresh news available about this satellite. Check back as we update our databases every day.


Newsletter sign-up

Weekly statistics, charts and insights to help you stay on top of the space industry.